Flag for India Weather past 2 weeks in Kolkata, West Bengal, India

Now
81 °F

Partly cloudy.


Feels Like: 88 °F
Forecast: 78 / 85 °F
Wind: 7 mph from West

Location: Calcutta / Dum Dum

Current Time: Jul 8, 2015 at 3:32:23 AM

Latest Report: Jul 8, 2015 at 2:50 AM


Visibility: 2 mi

Pressure: 29.45 "Hg

Humidity: 94%

Dew point: 79 °F

Location of KolkataLocation

Historic Weather in Kolkata — Graph

°F

Kolkata temperature yesterday

Maximum temperature yesterday: 90 °F (at 11:20 AM)
Minimum temperature yesterday: 81 °F (at 12:20 AM)
Average temperature yesterday: 83 °F

Past Weeks' High & Low Weather Summary

 TemperatureHumidityPressure
High97 °F (Jul 4, 1:50 PM)100% (Jun 28, 12:20 PM)29.74 "Hg (Jun 28, 12:20 PM)
Low77 °F (Jun 27, 7:50 AM)56% (Jul 4, 1:50 PM)29.30 "Hg (Jun 26, 3:50 AM)
Average84 °F87%29.51 "Hg
* Reported Jun 23 1:50 AM — Jul 8 1:50 AM, Kolkata, Weather by CustomWeather, © 2015

Note: Actual official high and low records may vary slightly from our data, if they occured in-between our weather recording intervals... More about our weather records

Advertising

Kolkata weather history for previous 24 hours

 ConditionsComfort  
Time TempWeatherWind HumidityBarometerVisibility
1:50 AM
Wed, Jul 8
82 °FPartly cloudy.No wind94%29.45 "Hg1 mi
1:20 AM81 °FPartly cloudy.No wind94%29.45 "Hg1 mi
12:50 AM81 °FPassing clouds.No wind94%29.47 "Hg1 mi
12:20 AM81 °FPassing clouds.No wind94%29.47 "Hg1 mi
11:50 PM
Tue, Jul 7
81 °FPartly cloudy.6 mph94%29.47 "Hg1 mi
11:20 PM82 °FPartly cloudy.No wind94%29.50 "Hg1 mi
10:50 PM82 °FPartly cloudy.No wind94%29.50 "Hg1 mi
10:20 PM82 °FPartly cloudy.7 mph94%29.50 "Hg1 mi
9:50 PM82 °FPartly cloudy.6 mph94%29.50 "Hg1 mi
9:20 PM82 °FPartly cloudy.7 mph94%29.50 "Hg1 mi
8:50 PM82 °FPartly cloudy.6 mph94%29.50 "Hg1 mi
8:20 PM82 °FMostly cloudy.6 mph94%29.50 "Hg1 mi
7:50 PM82 °FMostly cloudy.7 mph94%29.47 "Hg1 mi
7:20 PM82 °FMostly cloudy.7 mph94%29.47 "Hg1 mi
6:50 PM81 °FMore clouds than sun.6 mph100%29.45 "Hg1 mi
6:20 PM81 °FMore clouds than sun.3 mph100%29.45 "Hg1 mi
5:50 PM81 °FMore clouds than sun.3 mph100%29.42 "Hg1 mi
5:20 PM81 °FLight rain. More clouds than sun.3 mph94%29.42 "Hg1 mi
4:50 PM81 °FThunderstorms. More clouds than sun.3 mph94%29.42 "Hg1 mi
4:20 PM81 °FThunderstorms. More clouds than sun.6 mph94%29.42 "Hg1 mi
3:50 PM81 °FThunderstorms. More clouds than sun.10 mph94%29.42 "Hg1 mi
3:20 PM82 °FThunderstorms. Broken clouds.10 mph94%29.42 "Hg1 mi
2:50 PM82 °FLight rain. Broken clouds.3 mph94%29.42 "Hg1 mi
2:20 PM81 °FLight rain. More clouds than sun.7 mph94%29.42 "Hg1 mi
1:20 PM86 °FRain. More clouds than sun.9 mph84%29.45 "Hg1 mi
12:50 PM90 °FBroken clouds.5 mph79%29.45 "Hg1 mi
12:20 PM88 °FBroken clouds.5 mph84%29.45 "Hg1 mi
11:50 AM88 °FBroken clouds.7 mph84%29.47 "Hg1 mi
11:20 AM90 °FBroken clouds.No wind79%29.47 "Hg1 mi
10:50 AM88 °FFog.No wind84%29.47 "Hg1 mi
10:20 AM88 °FFog.No wind84%29.47 "Hg1 mi
9:50 AM88 °FFog.No wind84%29.50 "Hg1 mi
9:20 AM86 °FFog.No wind84%29.50 "Hg1 mi
8:50 AM84 °FFog.No wind89%29.50 "Hg1 mi
8:20 AM84 °FFog.No wind89%29.50 "Hg1 mi
7:50 AM82 °FFog.No wind94%29.50 "Hg1 mi
7:20 AM82 °FFog.No wind94%29.47 "Hg1 mi
6:50 AM82 °FFog.No wind94%29.47 "Hg1 mi
6:20 AM82 °FFog.No wind94%29.47 "Hg1 mi
5:50 AM82 °FFog.No wind94%29.47 "Hg1 mi
5:20 AM81 °FFog.No wind94%29.47 "Hg1 mi
4:50 AM81 °FFog.No wind94%29.45 "Hg1 mi
4:20 AM81 °FPartly cloudy.No wind94%29.47 "Hg1 mi
3:50 AM81 °FPartly cloudy.No wind94%29.47 "Hg2 mi
3:20 AM81 °FPartly cloudy.No wind94%29.45 "Hg2 mi
Weather by CustomWeather, © 2015

See weather overviewHow to use our weather pages